Terminal Aerodrome Forecast
Issued by NWS Pittsburgh, PA

Current Version | Previous Version | Graphics & Text | Print | Product List | Glossary On
Versions: 1 2 3 4 5 6 7 8 9 10 11 12 13 14 15 16 17 18 19 20 21 22 23 24 25 26 27 28 29 30 31
000
FTUS41 KPBZ 020729 AAB
TAFPIT
TAF AMD
KPIT 020729Z 0207/0312 03005KT P6SM VCSH SCT007 OVC080
      TEMPO 0208/0209 2SM TSRA OVC035CB
     FM020900 VRB03KT 2SM -SHRA BR OVC010
     FM021100 24005KT P6SM OVC010
     FM021500 27010G20KT P6SM BKN025
     FM021700 29012KT P6SM BKN035
     FM030500 35005KT P6SM BKN060=

USA.gov is the U.S. government's official web portal to all federal, state and local government web resources and services.